Find Kosmos-1709

NORAD ID: 16368 Int'l Des: 1985-116 Owner: VMF Country: SU operational
LEOCIRCULARPOLAR

Live-Position

3D-Globus wird geladen...

Über Kosmos-1709

Beschreibung wird geladen...

Nächste Überflüge

Passes for default location (London). Set your location on the main map for personalized predictions.

Höhenverlauf

Loading altitude history...

Zweizeiliger Elementsatz

1 16368U 85116A 26106.87328742 .00000080 00000-0 68392-4 0 9991
2 16368 82.9463 158.5143 0033467 296.3540 237.8601 13.74713295 22404
Epoch: 16. Apr. 2026 • Age: 10 hours

Aktueller Status

Höhe 975.2 km
Geschwindigkeit 7.37 km/s
Subsatellitenpunkt 0.68°N, 146.06°W
Startdatum 19. Dez. 1985
Alter 40.3 years
Typ other

Technische Details

Klassifizierung Payload
Masse 800.00 kg
Trockenmasse 800.00 kg
Gesamtmasse 800.00 kg
Länge 5.00 m
Durchmesser 2.10 m
Spannweite 17.00 m
Form Cyl + Ant
Hersteller OAZ
Bus-Typ KAUR-1 11F627
Phasenstatus In Orbit
Besitzer/Staat VMF/SU

Most Searched